DW3471 Weather Reports


time (UTC)temp
C
wind
direction
speed
KPH
gust
KPH
rain 1hr
cm
rain 24hr
cm
rain mn
cm
humidity
%
barometer
mb
20260503174911 13 273 3.2 9.7 0.00 0.00 0.00 37 1012.4
20260503173911 13 289 4.8 16.1 0.00 0.00 0.00 36 1012.7
20260503172910 13 283 8.0 19.3 0.00 0.00 0.00 37 1012.4
20260503171838 13 298 8.0 14.5 0.00 0.00 0.00 37 1012.7
20260503170838 12 325 4.8 20.9 0.00 0.00 0.00 43 1012.7
20260503150728 10 293 3.2 16.1 0.00 0.00 0.00 49 1013.4
20260503080606 6 292 0.0 0.0 0.00 0.00 0.00 72 1010.4
20260503072533 6 292 0.0 0.0 0.00 0.00 0.00 71 1010.1
20260503071532 6 292 0.0 0.0 0.00 0.00 0.00 70 1010.1
20260503070532 6 292 0.0 0.0 0.00 0.00 0.00 70 1010.1
20260503054354 7 290 0.0 0.0 0.00 0.00 0.00 63 1010.4
20260503053353 7 290 0.0 0.0 0.00 0.00 0.00 62 1010.8
20260503052353 7 290 0.0 0.0 0.00 0.00 0.00 61 1010.8
20260503051352 7 290 0.0 0.0 0.00 0.00 0.00 61 1010.7
20260503050351 8 290 0.0 0.0 0.00 0.00 0.00 60 1010.7
20260503045350 8 290 0.0 0.0 0.00 0.00 0.00 59 1011.1
20260503044318 8 290 1.6 1.6 0.00 0.00 0.00 58 1011.1
20260503043318 8 290 1.6 3.2 0.00 0.00 0.00 58 1011.1
20260503042317 8 290 1.6 1.6 0.00 0.00 0.00 57 1011.1
20260503041317 8 290 1.6 4.8 0.00 0.00 0.00 56 1011.1
20260503040316 8 290 3.2 4.8 0.00 0.00 0.00 56 1011.4
20260503035315 8 289 1.6 4.8 0.00 0.00 0.00 55 1011.4
20260503034314 9 288 3.2 4.8 0.00 0.00 0.00 55 1011.4
20260503033314 9 288 1.6 4.8 0.00 0.00 0.00 55 1011.1
20260503032242 9 288 1.6 3.2 0.00 0.00 0.00 55 1011.1
20260503031241 9 287 0.0 4.8 0.00 0.00 0.00 54 1011.1
20260503030241 10 282 4.8 6.4 0.00 0.00 0.00 53 1011.0
20260503025240 10 296 3.2 6.4 0.00 0.00 0.00 53 1011.0
20260503024240 10 303 1.6 3.2 0.00 0.00 0.00 52 1011.0
20260503023239 10 320 1.6 3.2 0.00 0.00 0.00 52 1011.4
20260503022238 10 320 3.2 3.2 0.00 0.00 0.00 51 1011.4
20260503021238 10 289 3.2 6.4 0.00 0.00 0.00 50 1011.4
20260503020237 11 292 3.2 6.4 0.00 0.00 0.00 49 1011.4
20260503015236 11 292 1.6 3.2 0.00 0.00 0.00 48 1011.4
20260503014235 11 292 1.6 3.2 0.00 0.00 0.00 48 1011.1
20260503013204 11 302 3.2 4.8 0.00 0.00 0.00 48 1011.1
20260503012132 11 290 3.2 4.8 0.00 0.00 0.00 47 1011.0
20260503011131 11 289 0.0 4.8 0.00 0.00 0.00 48 1011.0
20260503010130 11 288 0.0 3.2 0.00 0.00 0.00 47 1011.0
20260503005130 11 288 1.6 3.2 0.00 0.00 0.00 46 1010.7
20260503004129 11 288 3.2 4.8 0.00 0.00 0.00 46 1010.7
20260503003129 11 287 1.6 4.8 0.00 0.00 0.00 46 1010.7
20260503002128 12 289 0.0 0.0 0.00 0.00 0.00 45 1010.4
20260503001128 12 284 0.0 0.0 0.00 0.00 0.00 44 1010.4
20260503000127 12 284 0.0 0.0 0.00 0.00 0.00 44 1010.4
20260502235126 12 284 0.0 0.0 0.00 0.00 0.00 43 1010.4
20260502234126 12 281 3.2 6.4 0.00 0.00 0.00 43 1010.0
20260502233054 12 279 1.6 4.8 0.00 0.00 0.00 42 1010.0
20260502232053 13 223 1.6 4.8 0.00 0.00 0.00 42 1010.0
20260502231053 13 280 4.8 9.7 0.00 0.00 0.00 41 1010.0
20260502230052 13 292 4.8 8.0 0.00 0.00 0.00 42 1010.0
20260502225051 13 289 3.2 9.7 0.00 0.00 0.00 41 1010.0
20260502224051 13 276 6.4 11.3 0.00 0.00 0.00 42 1010.0
20260502223050 13 297 3.2 6.4 0.00 0.00 0.00 42 1010.0
20260502222049 13 298 3.2 14.5 0.00 0.00 0.00 41 1010.0
20260502221049 15 290 4.8 9.7 0.00 0.00 0.00 40 1010.1
20260502220048 15 282 6.4 8.0 0.00 0.00 0.00 38 1009.7
20260502215048 15 299 3.2 4.8 0.00 0.00 0.00 41 1009.7
20260502214047 15 349 1.6 8.0 0.00 0.00 0.00 40 1010.1
20260502213046 15 279 3.2 6.4 0.00 0.00 0.00 41 1010.1
20260502212015 15 295 4.8 9.7 0.00 0.00 0.00 40 1009.8
20260502211014 15 295 1.6 8.0 0.00 0.00 0.00 41 1009.8
20260502210014 15 298 4.8 8.0 0.00 0.00 0.00 40 1009.4
20260502205013 16 19 1.6 11.3 0.00 0.00 0.00 40 1009.5
20260502203941 16 288 6.4 11.3 0.00 0.00 0.00 39 1009.5
20260502202941 16 358 3.2 4.8 0.00 0.00 0.00 38 1009.5
20260502201940 15 342 1.6 4.8 0.00 0.00 0.00 43 1009.8
20260502200939 15 277 3.2 6.4 0.00 0.00 0.00 41 1009.8
20260502195908 16 352 3.2 8.0 0.00 0.00 0.00 40 1009.8
20260502194836 16 23 3.2 8.0 0.00 0.00 0.00 39 1010.2
20260502193836 16 281 1.6 9.7 0.00 0.00 0.00 44 1010.2
20260502192835 16 343 4.8 8.0 0.00 0.00 0.00 40 1010.5
20260502191804 16 310 3.2 6.4 0.00 0.00 0.00 40 1010.5
20260502190804 16 276 4.8 8.0 0.00 0.00 0.00 41 1010.8
20260502185803 16 292 3.2 9.7 0.00 0.00 0.00 45 1010.8
20260502184802 15 335 1.6 12.9 0.00 0.00 0.00 44 1011.1
20260502183801 15 291 4.8 9.7 0.00 0.00 0.00 43 1011.2
20260502182801 16 297 3.2 8.0 0.00 0.00 0.00 40 1011.2
20260502181800 15 26 3.2 9.7 0.00 0.00 0.00 44 1011.2
20260502180759 15 355 4.8 9.7 0.00 0.00 0.00 42 1011.2